Temp
53 46 44 47 49 49 46 43 41 49 53 48 45 47 52 57 52 51 51 51 52 54 60 61 62 61 60 62 61 62 61 61 60 58 57 58 58 59 60 62 64 64 64 64
48 43 50 52 51 48 46 42 43 48 52 48 46 46 52 56 53 52 52 50 51 53 58 60 59 59 60 60 60 60 61 61 61 59 59 58 58 58 58 59 60 62 62 63
41 49 54 51 47 47 46 43 40 40 47 49 45 42 48 53 56 55 54 52 53 52 54 57 60 58 57 58 58 60 61 61 61 61 60 59 58 57 56 57 59 63 64 63
47 52 49 46 46 47 37 48 46 43 38 32 44 29 43 48 51 53 52 50 49 51 54 57 57 56 57 58 58 61 61 60 60 60 58 57 55 54 56 56 57 59 60 62
43 45 45 44 48 48 43 48 44 43 38 38 39 28 41 49 46 49 50 51 49 49 53 54 55 59 58 59 56 57 59 59 59 58 58 56 55 55 56 58 60 60 60 59
47 51 46 47 49 49 50 45 45 43 38 27 38 34 37 40 44 46 50 52 53 52 52 55 57 58 56 56 56 56 57 58 59 58 58 56 55 55 55 60 58 58 58 59
45 46 49 49 43 48 46 38 30 27 24 28 41 34 36 47 50 49 48 50 52 52 53 54 54 54 55 55 56 56 57 57 59 58 57 57 56 56 55 55 54 54 54 57
32 32 45 49 43 38 39 37 26 20 23 27 41 31 39 51 53 54 54 52 54 53 55 54 55 55 55 56 56 56 56 56 57 58 57 57 58 56 56 56 56 57 57 57
34 37 46 48 48 44 39 31 40 31 32 24 32 43 47 51 50 52 53 53 50 51 52 54 55 55 55 55 55 56 56 56 57 57 56 56 56 56 55 56 55 55 58 59
40 29 45 45 45 44 39 43 29 29 20 24 33 36 36 43 45 49 48 49 50 52 52 53 54 54 55 56 56 56 56 55 56 56 55 56 55 56 55 55 54 54 58 58
42 36 37 42 38 38 35 33 36 33 31 21 20 28 43 45 46 46 47 50 50 51 51 52 54 55 55 55 54 54 54 55 54 55 54 54 54 55 55 54 54 54 54 57
41 37 26 39 43 44 41 39 38 26 26 33 25 28 51 48 49 49 49 51 51 52 53 53 54 55 55 55 54 54 54 54 54 54 54 54 54 53 53 52 53 54 52 56
41 32 24 29 33 38 35 40 40 36 31 26 24 28 50 47 48 52 48 49 51 52 53 53 53 54 55 56 56 55 55 54 54 55 53 53 52 52 51 52 53 53 53 55
46 33 30 27 32 36 32 37 40 37 26 28 31 36 45 49 50 51 51 47 50 50 52 51 50 52 54 55 56 57 56 56 55 54 52 51 51 52 51 52 53 53 52 52
42 28 32 36 39 39 37 36 38 34 36 30 34 35 43 47 48 50 47 49 50 51 51 50 49 52 54 55 54 55 56 57 56 54 52 51 51 52 52 52 51 52 52 52
41 26 26 22 36 36 34 37 38 37 38 37 39 38 49 50 46 46 47 49 49 50 51 50 52 54 54 55 56 56 56 54 55 54 53 53 52 52 51 51 50 50 50 50
35 31 28 26 33 32 26 35 38 38 40 39 31 41 47 44 47 46 46 49 49 49 49 51 52 52 53 54 55 54 56 56 53 52 53 53 52 51 51 51 50 49 48 48
37 32 31 26 27 15 36 47 44 42 44 43 43 45 45 44 45 47 50 47 46 49 50 51 52 53 54 54 55 54 55 55 53 50 50 52 51 51 51 50 49 48 48 47
41 38 30 25 25 32 37 42 40 37 37 42 39 41 43 44 43 43 50 49 48 49 51 52 52 53 53 53 54 53 52 54 53 54 50 50 50 50 50 48 47 48 47 46
37 36 32 28 23 21 36 42 46 42 29 42 42 41 42 42 33 38 46 48 49 51 51 50 52 52 50 51 53 51 51 51 52 53 52 51 50 49 48 49 46 47 46 46
23 26 26 27 26 30 43 43 44 27 30 44 44 45 41 38 42 46 49 49 51 49 50 51 50 48 49 50 50 49 49 49 51 52 52 51 50 47 47 46 45 45 45 44
29 24 25 26 25 21 45 44 35 41 45 47 43 42 42 43 45 46 47 47 48 47 48 49 48 48 49 49 48 47 47 50 51 51 51 50 50 48 49 44 44 44 45 42
28 35 32 31 31 44 48 47 49 49 44 42 41 44 44 43 44 45 45 45 46 46 46 48 47 47 47 48 47 45 47 49 49 49 50 50 50 48 46 43 43 42 43 44
36 41 36 36 39 41 45 48 49 46 44 45 46 45 44 42 43 43 43 44 45 47 47 48 46 44 44 46 46 46 46 47 47 46 47 49 49 46 44 46 46 45 44 45
35 35 33 34 39 42 44 45 43 44 45 44 44 44 43 43 42 42 42 44 44 44 45 45 44 43 45 45 45 45 46 46 44 45 45 46 48 45 42 44 45 45 47 48
37 34 30 29 40 40 41 44 45 43 42 41 40 40 42 42 41 42 41 43 43 43 44 43 43 44 44 44 44 45 46 45 43 43 44 45 46 43 41 40 42 45 47 47
MSLP
1016.67 1016.72 1016.81 1017.14 1017.48 1017.57 1017.64 1017.37 1016.58 1015.26 1014.60 1014.51 1013.81 1013.24 1011.95 1010.93 1010.73 1011.01 1011.21 1011.03 1010.89 1010.72 1010.04 1009.62 1009.67 1010.09 1010.47 1010.86 1011.23 1011.54 1012.15 1011.89 1012.03 1012.66 1012.93 1012.87 1012.62 1012.45 1012.45 1012.38 1012.23 1012.31 1012.23 1012.25
1016.88 1017.10 1017.52 1017.64 1017.73 1017.80 1017.68 1017.21 1016.30 1015.24 1014.88 1015.28 1013.76 1012.69 1011.10 1010.41 1010.41 1010.72 1010.96 1011.09 1010.94 1010.74 1010.37 1009.91 1010.00 1010.20 1010.55 1011.00 1011.40 1011.56 1012.07 1011.86 1011.70 1012.18 1012.49 1012.58 1012.62 1012.61 1012.61 1012.55 1012.40 1012.37 1012.30 1012.20
1017.62 1017.58 1017.64 1017.86 1017.86 1017.66 1017.25 1016.92 1016.63 1016.56 1015.56 1014.29 1013.86 1012.29 1010.71 1010.07 1010.05 1010.31 1010.69 1010.91 1010.85 1010.71 1010.59 1010.28 1010.32 1010.42 1010.52 1010.90 1011.17 1011.49 1011.79 1011.71 1011.65 1011.94 1012.23 1012.39 1012.48 1012.52 1012.55 1012.49 1012.29 1012.08 1012.05 1012.01
1017.88 1017.78 1018.05 1018.14 1017.95 1017.77 1017.33 1016.89 1017.05 1016.89 1016.43 1015.33 1014.08 1013.19 1011.07 1010.22 1010.29 1010.49 1010.78 1011.01 1010.94 1010.77 1010.56 1010.55 1010.52 1010.30 1010.82 1011.07 1011.23 1011.38 1011.40 1011.52 1011.67 1011.92 1012.26 1012.41 1012.43 1012.54 1012.32 1012.19 1012.08 1012.07 1011.95 1011.90
1018.23 1018.31 1018.54 1018.44 1018.00 1018.16 1017.46 1017.06 1017.29 1017.21 1016.93 1015.97 1014.34 1014.00 1011.25 1010.21 1010.63 1010.74 1010.83 1011.00 1010.93 1010.85 1010.71 1010.67 1010.79 1010.69 1010.43 1010.64 1011.05 1011.28 1011.27 1011.33 1011.49 1011.70 1011.88 1012.15 1012.22 1012.21 1012.02 1011.90 1011.78 1011.71 1011.66 1011.48
1018.55 1018.79 1019.04 1018.53 1018.11 1017.92 1017.53 1017.04 1016.53 1016.77 1017.14 1016.34 1014.50 1014.04 1011.58 1010.89 1010.92 1010.96 1010.99 1010.96 1010.93 1010.82 1010.76 1010.75 1010.64 1010.68 1010.72 1010.81 1010.93 1011.16 1011.35 1011.35 1011.28 1011.42 1011.58 1011.79 1011.89 1011.82 1011.71 1011.64 1011.64 1011.50 1011.29 1011.11
1018.36 1018.53 1018.60 1018.80 1018.32 1017.65 1017.92 1017.53 1017.49 1017.71 1017.46 1015.99 1014.70 1014.08 1011.45 1010.85 1010.84 1010.99 1011.12 1011.09 1010.92 1010.81 1010.79 1010.79 1010.91 1010.93 1010.85 1010.90 1010.91 1011.05 1011.12 1011.12 1011.11 1011.21 1011.30 1011.36 1011.40 1011.39 1011.36 1011.25 1011.23 1011.19 1011.12 1010.91
1018.97 1018.55 1018.56 1018.75 1018.86 1018.97 1018.73 1018.72 1019.04 1019.21 1018.35 1016.78 1014.88 1013.27 1011.02 1010.47 1010.57 1010.71 1010.83 1010.78 1010.84 1010.79 1010.80 1010.80 1010.84 1010.77 1010.81 1010.88 1010.82 1010.84 1010.82 1010.80 1010.80 1010.88 1010.95 1010.92 1010.91 1010.97 1010.88 1010.77 1010.74 1010.75 1010.72 1010.60
1019.57 1018.97 1018.92 1019.05 1019.21 1019.54 1019.09 1019.17 1019.55 1019.66 1018.84 1018.12 1015.02 1012.36 1011.19 1010.69 1010.80 1011.04 1011.28 1011.26 1011.23 1011.17 1011.07 1010.85 1010.64 1010.62 1010.62 1010.66 1010.62 1010.62 1010.64 1010.58 1010.55 1010.61 1010.59 1010.56 1010.48 1010.54 1010.58 1010.38 1010.27 1010.32 1010.29 1010.17
1020.21 1020.10 1019.13 1019.49 1019.62 1019.68 1019.72 1019.92 1020.07 1020.20 1020.07 1018.46 1015.36 1013.22 1011.81 1011.30 1011.42 1011.47 1011.67 1011.56 1011.46 1011.43 1011.19 1010.97 1010.82 1010.51 1010.33 1010.11 1010.07 1010.21 1010.32 1010.36 1010.34 1010.29 1010.15 1010.17 1010.24 1010.15 1010.07 1010.02 1009.98 1009.91 1009.92 1009.83
1020.70 1020.95 1020.02 1019.65 1019.49 1019.25 1019.90 1019.80 1020.15 1020.49 1020.54 1019.79 1017.60 1014.43 1012.22 1011.98 1011.83 1011.78 1011.79 1011.72 1011.66 1011.61 1011.42 1011.09 1010.88 1010.51 1010.23 1009.93 1009.89 1009.78 1009.80 1009.89 1009.91 1009.93 1009.81 1009.79 1009.67 1009.53 1009.58 1009.63 1009.49 1009.38 1009.44 1009.56
1021.32 1021.35 1021.04 1019.81 1019.37 1019.26 1019.40 1019.57 1019.85 1020.62 1020.76 1020.02 1018.62 1014.78 1012.50 1011.93 1011.72 1011.63 1011.81 1011.88 1011.81 1011.67 1011.53 1011.33 1011.02 1010.67 1010.32 1010.06 1009.83 1009.61 1009.40 1009.35 1009.28 1009.29 1009.29 1009.25 1009.13 1009.10 1009.13 1009.08 1008.95 1008.96 1009.11 1009.13
1021.68 1022.09 1021.89 1020.27 1020.37 1019.93 1019.81 1019.62 1019.96 1020.37 1020.65 1019.66 1018.98 1014.64 1012.31 1011.76 1011.49 1011.51 1011.91 1011.81 1011.99 1011.86 1011.66 1011.59 1011.38 1011.08 1010.69 1010.29 1009.97 1009.56 1009.24 1009.03 1008.85 1008.81 1008.75 1008.71 1008.67 1008.71 1008.75 1008.65 1008.47 1008.33 1008.37 1008.48
1021.75 1022.29 1022.36 1021.64 1020.56 1020.41 1020.19 1019.68 1019.76 1020.12 1020.06 1018.69 1016.87 1014.70 1013.38 1012.71 1012.18 1011.92 1012.16 1011.65 1011.95 1012.04 1011.82 1011.73 1011.61 1011.30 1010.73 1010.29 1009.90 1009.42 1009.06 1008.73 1008.50 1008.39 1008.31 1008.17 1008.11 1008.14 1008.13 1007.98 1007.92 1007.84 1007.75 1007.80
1022.30 1022.78 1022.62 1021.78 1021.26 1020.71 1019.77 1018.88 1018.69 1018.57 1018.03 1017.95 1015.43 1015.38 1012.66 1013.40 1012.86 1012.09 1011.81 1011.72 1011.91 1011.98 1011.75 1011.64 1011.50 1011.29 1010.72 1010.18 1009.69 1009.21 1008.87 1008.55 1008.32 1008.05 1007.88 1007.70 1007.53 1007.46 1007.46 1007.49 1007.47 1007.38 1007.34 1007.21
1022.37 1022.62 1022.72 1021.95 1021.30 1020.15 1019.15 1017.86 1016.94 1016.52 1016.21 1015.90 1015.19 1014.28 1013.31 1012.93 1012.62 1012.43 1012.52 1012.38 1012.36 1012.06 1011.88 1011.79 1011.56 1011.11 1010.66 1010.17 1009.68 1009.13 1008.74 1008.34 1007.99 1007.76 1007.48 1007.10 1006.97 1006.89 1006.84 1006.84 1006.91 1007.01 1007.00 1006.89
1022.29 1022.96 1023.18 1021.34 1020.61 1019.80 1018.01 1015.34 1015.00 1014.89 1014.57 1014.37 1014.25 1013.37 1013.33 1013.16 1013.00 1013.05 1013.00 1012.71 1012.53 1012.41 1012.20 1011.93 1011.50 1011.01 1010.52 1010.00 1009.45 1009.04 1008.39 1007.89 1007.52 1007.17 1007.02 1006.75 1006.46 1006.27 1006.18 1006.19 1006.36 1006.38 1006.41 1006.47
1020.91 1022.07 1022.75 1021.41 1020.97 1019.06 1015.43 1014.12 1013.89 1013.80 1013.64 1013.88 1013.84 1013.29 1013.60 1013.98 1013.84 1013.39 1013.06 1013.25 1012.95 1012.49 1012.11 1011.55 1011.10 1010.73 1010.26 1009.58 1009.08 1008.71 1008.18 1007.52 1007.02 1006.57 1006.35 1006.17 1006.01 1005.81 1005.61 1005.57 1005.59 1005.71 1005.79 1005.86
1019.97 1021.13 1021.84 1021.65 1020.23 1017.34 1015.54 1013.79 1013.44 1013.62 1014.42 1014.52 1014.71 1014.61 1014.34 1014.23 1014.09 1013.70 1013.14 1013.06 1012.91 1012.61 1012.15 1011.53 1011.06 1010.60 1009.96 1009.44 1008.83 1008.35 1007.86 1007.30 1006.71 1006.18 1005.90 1005.51 1005.28 1005.16 1005.00 1004.96 1004.84 1004.93 1005.13 1005.14
1020.49 1020.67 1021.19 1021.13 1020.08 1017.46 1014.53 1013.84 1013.69 1013.85 1014.33 1014.65 1014.80 1014.89 1014.74 1014.59 1014.55 1013.99 1013.55 1013.17 1012.82 1012.29 1011.70 1011.23 1010.82 1010.25 1009.79 1009.21 1008.59 1008.13 1007.65 1007.17 1006.46 1005.91 1005.47 1005.00 1004.59 1004.45 1004.32 1004.13 1004.09 1004.10 1004.31 1004.48
1020.52 1020.61 1020.53 1020.16 1019.14 1016.48 1014.48 1014.09 1013.81 1014.45 1015.45 1014.84 1014.77 1014.83 1014.96 1015.07 1015.01 1014.17 1013.49 1012.89 1012.42 1011.76 1011.38 1010.88 1010.47 1010.10 1009.64 1009.05 1008.58 1008.07 1007.41 1006.66 1005.94 1005.43 1004.99 1004.47 1003.96 1003.71 1003.50 1003.38 1003.31 1003.33 1003.52 1003.82
1019.49 1019.55 1019.52 1019.09 1018.04 1016.02 1014.20 1014.02 1014.81 1014.80 1014.47 1014.49 1014.76 1014.91 1014.90 1014.86 1014.50 1013.79 1013.11 1012.63 1012.21 1011.79 1011.35 1010.79 1010.30 1009.85 1009.44 1009.05 1008.56 1007.89 1007.15 1006.36 1005.65 1004.96 1004.32 1003.71 1003.20 1002.94 1002.79 1002.76 1002.66 1002.69 1002.83 1003.15
1018.67 1017.88 1017.68 1017.24 1015.52 1014.33 1014.00 1014.08 1014.21 1014.47 1014.98 1014.76 1014.52 1014.43 1014.23 1014.21 1013.86 1013.29 1012.95 1012.62 1012.21 1011.87 1011.41 1010.97 1010.46 1009.70 1009.27 1008.79 1008.39 1007.69 1006.89 1006.17 1005.42 1004.67 1003.83 1003.11 1002.50 1002.09 1001.94 1002.10 1002.23 1002.32 1002.24 1002.39
1018.33 1017.63 1016.97 1016.80 1015.31 1015.15 1014.61 1014.41 1014.25 1014.36 1014.63 1014.44 1014.25 1014.07 1014.14 1013.95 1013.66 1013.21 1012.95 1012.53 1012.01 1011.59 1011.11 1010.71 1010.28 1009.76 1009.12 1008.50 1008.02 1007.57 1006.70 1005.88 1005.16 1004.29 1003.41 1002.62 1001.98 1001.49 1001.19 1001.26 1001.33 1001.48 1001.58 1001.50
1018.54 1017.87 1017.22 1016.30 1015.74 1015.22 1014.85 1014.74 1014.73 1014.70 1014.71 1014.59 1014.45 1014.39 1014.18 1013.79 1013.43 1013.18 1012.73 1012.27 1011.82 1011.39 1010.97 1010.53 1010.06 1009.52 1008.64 1008.01 1007.40 1006.88 1006.23 1005.54 1004.69 1003.80 1002.99 1002.23 1001.51 1000.89 1000.59 1000.48 1000.46 1000.44 1000.34 1000.31
1018.46 1017.55 1017.44 1015.57 1015.84 1015.31 1014.71 1014.64 1014.66 1014.74 1014.64 1014.59 1014.45 1014.18 1013.91 1013.71 1013.33 1012.90 1012.40 1011.98 1011.53 1011.07 1010.55 1010.05 1009.53 1009.03 1008.19 1007.54 1006.87 1006.24 1005.72 1005.06 1004.37 1003.58 1002.68 1001.86 1001.10 1000.48 1000.13 999.96 999.78 999.67 999.58 999.59
Wind_Speed
3 2 5 7 7 7 8 9 12 16 3 10 5 16 14 10 2 6 8 7 7 7 7 3 3 4 3 4 4 4 3 4 3 2 3 3 3 2 2 3 5 6 4 5
0 2 5 4 5 7 9 12 13 5 8 11 10 17 14 5 3 4 5 5 7 4 6 2 4 5 4 5 5 5 6 5 4 3 2 1 1 2 2 3 5 6 6 5
3 3 3 4 7 10 8 9 4 7 14 9 9 6 4 3 6 5 6 5 4 3 5 5 5 6 8 7 8 7 6 5 4 4 2 2 2 2 3 4 3 3 5 6
5 5 2 6 9 3 6 4 7 10 7 4 5 6 4 5 6 7 6 5 5 5 3 5 5 3 7 5 4 4 5 5 4 4 3 5 4 4 3 2 3 4 4 7
1 4 5 5 3 3 9 10 10 9 6 8 4 2 8 9 5 4 5 4 4 2 4 4 6 7 2 5 5 4 5 6 6 5 5 4 5 4 3 3 5 4 5 6
6 5 2 4 8 8 12 10 11 5 2 3 6 3 6 2 2 4 5 5 3 2 2 3 3 2 3 2 3 4 4 5 5 6 7 7 7 7 4 6 7 6 4 3
4 4 4 2 7 3 8 7 4 4 2 6 5 2 10 6 6 5 3 4 2 1 3 4 5 6 6 6 6 5 6 7 6 7 7 7 7 7 7 6 3 5 4 4
2 6 2 2 2 3 5 3 3 3 3 6 6 6 6 9 7 7 5 3 3 2 2 5 7 6 5 6 6 6 7 7 7 7 7 6 7 4 4 5 3 3 4 5
6 3 2 2 3 2 4 1 2 3 4 2 6 7 5 8 6 9 8 7 7 7 7 7 6 5 6 6 7 8 7 7 7 7 6 6 6 7 6 6 4 3 5 6
3 6 2 4 2 2 2 3 1 2 4 6 7 6 2 5 6 8 7 7 7 7 8 7 7 6 6 7 6 6 6 7 7 7 7 6 7 7 6 5 6 6 6 8
3 3 3 0 5 1 1 1 3 1 2 3 5 7 1 5 6 5 6 6 7 8 8 7 6 7 6 5 5 6 6 7 7 7 7 7 7 7 6 6 6 6 4 9
2 3 4 8 4 3 1 3 2 3 4 4 4 9 10 7 6 4 7 7 6 5 7 7 7 7 7 7 7 7 7 7 8 7 7 7 7 7 7 6 7 6 5 6
3 2 5 2 1 2 2 5 5 2 1 7 4 8 0 6 7 8 6 6 6 6 7 5 6 7 7 7 7 7 7 7 7 7 7 7 7 7 7 7 7 6 6 5
5 4 8 9 8 7 6 9 10 7 6 8 17 22 20 19 17 16 11 3 6 6 6 6 7 8 7 7 7 7 7 7 7 6 7 8 7 7 7 7 7 6 7 7
5 5 7 14 14 15 19 21 18 18 18 17 22 20 26 19 21 15 5 5 7 7 5 5 6 8 10 9 8 7 7 7 7 7 7 8 7 7 7 7 7 7 6 6
5 5 2 5 14 19 19 19 20 22 22 19 22 26 21 13 5 9 9 8 8 8 7 8 11 13 13 12 12 10 9 7 6 7 8 7 7 7 8 7 7 7 7 7
6 3 2 9 5 13 14 12 12 8 9 9 10 16 10 3 6 7 8 10 9 8 10 13 14 12 12 13 12 12 12 10 8 7 7 8 7 7 8 7 7 8 7 7
13 7 3 7 4 5 8 12 2 5 6 6 6 8 6 10 11 8 10 8 9 12 15 17 14 13 13 12 13 11 14 13 10 9 7 9 7 8 7 7 8 7 6 7
5 11 4 4 6 14 19 11 1 4 3 10 11 13 10 10 8 7 6 9 8 13 14 13 10 13 12 13 12 11 11 13 13 14 8 8 7 8 8 8 8 7 6 6
2 3 6 3 5 6 2 4 5 3 4 5 7 12 13 10 8 6 7 8 13 15 11 10 14 11 11 11 12 12 12 12 15 16 13 9 8 8 9 10 8 7 5 7
2 1 8 8 8 9 7 4 1 2 4 11 4 7 4 6 9 14 14 14 14 10 13 14 12 9 10 10 11 13 13 15 15 14 12 13 10 8 9 8 6 6 6 6
7 6 5 5 7 10 5 4 5 8 11 11 5 5 7 10 14 15 12 12 13 13 15 11 14 14 13 11 12 14 15 14 13 13 13 12 12 9 7 7 7 6 7 7
6 7 6 8 6 10 21 16 6 5 5 5 6 10 11 14 16 15 13 14 14 13 12 14 15 15 14 13 12 15 16 16 16 16 16 15 13 9 7 7 8 5 7 8
8 9 11 14 10 10 14 16 14 7 9 12 11 10 9 11 13 13 12 13 12 15 14 13 14 14 16 14 14 14 16 16 16 17 17 16 13 9 7 6 8 8 8 9
7 6 8 16 18 18 14 13 9 15 13 9 9 9 13 13 10 11 11 11 11 11 11 11 12 12 15 16 15 14 15 15 15 16 15 15 12 9 6 6 7 9 11 11
10 16 14 17 15 15 15 11 10 11 9 7 8 10 10 8 10 11 9 10 10 11 11 13 14 13 16 16 16 15 15 15 15 15 13 12 11 7 5 5 6 10 13 14
Wind_Direction
94 352 35 15 6 337 316 288 285 281 75 345 292 292 289 283 359 345 348 345 343 326 316 309 125 39 73 94 97 103 172 165 144 224 246 268 254 289 321 326 341 335 317 307
160 0 43 359 314 284 269 270 282 331 6 317 290 293 274 217 128 91 28 360 336 300 304 91 167 228 146 168 177 190 212 192 170 174 227 214 343 312 300 314 313 301 284 281
276 36 31 305 290 279 285 276 348 294 321 261 284 262 224 140 122 108 67 42 331 307 291 239 229 211 167 186 194 186 209 199 195 197 212 268 265 271 264 254 244 272 316 317
271 75 344 295 279 27 292 43 341 308 334 288 37 283 309 79 43 57 57 50 11 355 296 309 327 246 161 197 184 206 186 192 208 225 217 229 232 251 245 248 258 272 269 281
0 337 333 292 344 351 257 336 297 280 278 299 181 106 250 84 26 20 59 67 66 36 324 243 243 283 228 159 171 215 225 216 212 208 216 231 256 261 263 254 276 287 271 254
263 113 244 302 305 251 279 282 270 196 237 281 150 138 279 96 67 21 27 23 84 109 198 268 305 276 286 239 200 215 252 252 230 217 227 227 234 246 256 273 284 279 260 280
196 193 159 242 298 147 333 323 335 352 360 236 144 280 240 122 89 87 27 354 354 280 266 211 224 241 249 241 218 222 231 243 234 236 232 235 244 245 250 259 241 278 288 287
325 320 207 119 53 298 302 340 121 261 313 289 229 242 244 119 135 145 164 208 77 18 281 253 249 246 248 256 248 239 236 237 230 234 242 245 252 250 252 240 233 268 281 289
3 278 135 10 8 1 327 38 2 286 253 340 249 265 53 129 132 46 20 17 6 355 343 300 274 275 261 253 245 234 245 251 237 234 239 244 242 243 244 252 242 250 271 289
31 302 62 129 242 192 300 325 331 304 332 296 295 318 274 203 98 38 344 3 4 353 342 332 329 307 271 239 239 251 256 250 248 245 230 230 237 245 252 256 241 238 277 288
2 151 287 201 200 118 196 233 244 183 197 243 306 265 43 55 61 339 345 16 12 355 344 332 330 321 309 307 270 239 235 247 254 249 244 240 240 235 241 247 248 227 237 282
49 287 272 248 89 50 316 297 34 125 260 228 220 268 271 129 194 2 23 28 359 3 330 343 343 338 335 332 311 281 258 241 240 241 242 243 242 236 238 242 245 221 227 262
32 287 315 302 31 22 244 195 238 136 31 222 242 261 223 186 233 39 40 39 348 350 349 9 355 345 335 329 317 308 297 272 258 247 245 247 241 237 239 241 241 220 220 241
132 225 203 238 275 336 289 278 273 205 225 258 238 276 276 291 307 330 319 66 12 351 360 3 351 336 327 319 314 305 294 285 280 263 256 250 241 237 238 239 238 233 220 227
175 238 247 264 279 287 275 275 273 254 251 245 271 264 274 293 295 284 290 35 9 332 8 356 341 331 325 320 312 309 297 295 286 273 264 255 241 237 240 241 240 244 244 235
169 268 335 270 268 262 275 274 257 255 255 253 261 270 278 282 357 15 2 352 328 319 0 357 341 327 325 323 319 318 314 297 285 282 267 256 243 236 235 230 228 235 242 237
182 187 260 270 312 325 293 257 245 227 241 224 237 249 286 318 17 12 340 318 322 359 352 335 324 319 316 312 313 312 310 306 288 267 273 269 253 244 231 222 223 227 228 233
242 190 203 279 353 245 247 313 247 268 252 327 308 279 38 17 354 341 312 12 352 343 328 324 315 308 306 306 309 308 308 300 300 274 258 270 261 255 246 229 223 225 217 226
263 222 247 247 232 288 283 290 120 73 48 46 20 2 353 340 323 303 348 351 332 328 308 297 301 306 303 300 297 300 298 304 300 301 275 259 249 254 244 238 228 223 218 221
343 265 194 169 246 260 90 127 65 146 194 6 15 338 333 336 313 296 323 318 317 305 296 310 309 306 304 305 305 303 301 296 296 300 297 279 257 247 245 238 229 217 202 210
137 209 215 230 253 269 317 84 244 275 335 312 5 323 317 305 305 309 306 297 299 294 307 314 314 311 304 310 314 302 294 288 288 286 285 281 275 251 244 240 222 211 204 194
182 187 192 211 234 262 140 60 359 343 328 320 30 325 314 316 309 302 306 313 316 314 315 314 322 318 309 313 315 308 302 301 299 295 286 274 272 256 250 234 233 215 193 192
283 216 239 197 217 317 309 319 11 319 341 332 340 323 313 309 309 316 315 318 315 313 324 319 314 307 317 313 314 309 305 305 304 301 292 285 274 251 228 226 234 221 206 205
262 276 272 283 292 310 316 315 313 3 332 323 321 327 316 306 311 308 317 307 312 316 314 313 310 317 313 314 314 308 309 308 305 300 298 295 286 263 231 224 223 223 217 214
262 320 284 283 292 297 285 303 353 335 325 335 324 313 305 299 301 304 301 305 310 303 305 305 301 296 302 306 307 312 311 306 304 302 299 295 288 268 242 228 221 219 227 217
257 266 265 276 282 292 299 327 319 308 313 303 308 307 300 306 303 298 299 298 296 297 295 295 293 295 302 305 305 310 316 318 313 306 306 300 295 283 246 227 249 237 227 219